Osceola, IA

2:13 AM CDT on September 30, 2016 (GMT -0500)
Osceola Municipal

Weather History for KI75 - March, 2014

Change the Weather History Date:

Sunday, March 2, 2014

  Actual Average (KLWD) Record (KLWD)
Temperature  
Mean Temperature -3 °F 34 °F  
Max Temperature 0 °F 44 °F 77 °F (1992)
Min Temperature -6 °F 24 °F -6 °F (2014)
Degree Days  
Heating Degree Days 68 31  
Month to date heating degree days 63  
Since 1 July heating degree days 4780  
Cooling Degree Days 0 0  
Month to date cooling degree days 0  
Year to date cooling degree days 0  
Moisture  
Dew Point -14 °F    
Average Humidity 60    
Maximum Humidity 74    
Minimum Humidity 48    
Precipitation  
Precipitation 0.00 in 0.06 in 1.17 in (1965)
Month to date precipitation 0.12  
Sea Level Pressure  
Sea Level Pressure 30.49 in    
Wind  
Wind Speed 15 mph (NNW)    
Max Wind Speed 23 mph    
Max Gust Speed 26 mph    
Visibility 10 miles    
Events Snow    
T = Trace of Precipitation, MM = Missing Value Source: NWS Daily Summary

Daily Weather History Graph

Daily Weather History Graph

Search for Another Location

Airport or City:

Trip Planner

Search our weather history database for the weather conditions in past years. The results will help you decide how hot, cold, wet, or windy it might be!

Date:

Astronomy

Mar. 02, 2014 Rise Set
Actual Time 6:47 AM CST 6:06 PM CST
Civil Twilight 6:19 AM CST 6:34 PM CST
Nautical Twilight 5:48 AM CST 7:06 PM CST
Astronomical Twilight 5:16 AM CST 7:38 PM CST
Moon 7:17 AM CST (3/2) 8:05 PM CST (3/2)
Length of Visible Light 12h 14m
Length of Day
11h 19m
Waxing Crescent, 3% of the Moon is Illuminated
Mar 2
Waxing Crescent
Mar 8
First Quarter
Mar 16
Full
Mar 23
Last Quarter
Mar 30
New

Hourly Weather History & Observations

Time (CST) Temp. Windchill Dew Point Humidity Pressure Visibility Wind Dir Wind Speed Gust Speed Precip Events Conditions
12:15 AM -0.8 °F -21.6 °F -7.6 °F 73% 30.43 in 10.0 mi North 17.3 mph 23.0 mph N/A   Overcast
12:35 AM -1.3 °F -23.5 °F -7.8 °F 74% 30.42 in 3.0 mi North 19.6 mph 24.2 mph N/A Snow Light Snow
12:55 AM -1.3 °F -22.9 °F -7.8 °F 74% 30.43 in 4.0 mi North 18.4 mph 23.0 mph N/A Snow Light Snow
1:15 AM -1.3 °F -22.9 °F -8.3 °F 72% 30.42 in 10.0 mi NNW 18.4 mph 25.3 mph N/A   Mostly Cloudy
1:35 AM -1.1 °F -21.5 °F -7.6 °F 74% 30.44 in 10.0 mi NNW 16.1 mph 21.9 mph N/A   Mostly Cloudy
1:55 AM -1.3 °F -20.3 °F -8.0 °F 73% 30.43 in 10.0 mi North 13.8 mph - N/A   Overcast
2:15 AM -1.5 °F -22.6 °F -8.7 °F 71% 30.44 in 10.0 mi NNW 17.3 mph 24.2 mph N/A   Overcast
2:35 AM -1.7 °F -23.4 °F -9.8 °F 68% 30.44 in 10.0 mi North 18.4 mph 23.0 mph N/A   Overcast
2:55 AM -1.8 °F -23.0 °F -10.5 °F 67% 30.45 in 10.0 mi North 17.3 mph 23.0 mph N/A   Overcast
3:15 AM -1.7 °F -24.5 °F -11.2 °F 64% 30.45 in 10.0 mi North 20.7 mph 26.5 mph N/A   Overcast
3:35 AM -2.2 °F -21.5 °F -13.0 °F 60% 30.44 in 10.0 mi North 13.8 mph - N/A   Overcast
3:55 AM -2.7 °F -24.2 °F -13.0 °F 62% 30.44 in 10.0 mi North 17.3 mph 23.0 mph N/A   Overcast
4:15 AM -3.1 °F -25.8 °F -13.5 °F 61% 30.45 in 10.0 mi North 19.6 mph 25.3 mph N/A   Overcast
4:35 AM -3.3 °F -24.2 °F -14.8 °F 58% 30.45 in 10.0 mi North 16.1 mph - N/A   Overcast
4:55 AM -3.6 °F -26.5 °F -15.2 °F 58% 30.46 in 10.0 mi NNW 19.6 mph 24.2 mph N/A   Overcast
5:15 AM -3.8 °F -28.4 °F -15.2 °F 58% 30.47 in 10.0 mi NNW 23.0 mph - N/A   Overcast
5:35 AM -4.0 °F -25.2 °F -15.3 °F 58% 30.46 in 10.0 mi North 16.1 mph - N/A   Overcast
5:55 AM -4.4 °F -26.3 °F -16.6 °F 56% 30.48 in 10.0 mi North 17.3 mph 26.5 mph N/A   Overcast
6:15 AM -4.5 °F -26.5 °F -15.9 °F 58% 30.48 in 10.0 mi NNW 17.3 mph 23.0 mph N/A   Overcast
6:35 AM -5.8 °F -28.2 °F -17.7 °F 57% 30.49 in 10.0 mi North 17.3 mph 20.7 mph N/A   Mostly Cloudy
6:55 AM -6.0 °F -27.0 °F -17.7 °F 57% 30.49 in 10.0 mi North 15.0 mph 23.0 mph N/A   Scattered Clouds
7:15 AM -5.3 °F -25.4 °F -16.1 °F 60% 30.50 in 10.0 mi NNW 13.8 mph 20.7 mph N/A   Mostly Cloudy
7:35 AM -5.1 °F -25.9 °F -15.5 °F 61% 30.51 in 10.0 mi NNW 15.0 mph 18.4 mph N/A   Overcast
7:55 AM -4.9 °F -26.3 °F -16.1 °F 59% 30.51 in 10.0 mi North 16.1 mph - N/A   Overcast
8:15 AM -4.9 °F -26.3 °F -16.1 °F 59% 30.50 in 10.0 mi North 16.1 mph 23.0 mph N/A   Overcast
8:35 AM -4.9 °F -27.0 °F -17.0 °F 56% 30.52 in 10.0 mi NNW 17.3 mph 23.0 mph N/A   Overcast
8:55 AM -4.9 °F -26.3 °F -17.3 °F 55% 30.53 in 10.0 mi North 16.1 mph 19.6 mph N/A   Overcast
9:15 AM -5.1 °F -25.9 °F -16.8 °F 57% 30.54 in 10.0 mi North 15.0 mph - N/A   Overcast
9:35 AM -4.9 °F -25.6 °F -17.3 °F 55% 30.54 in 10.0 mi NNW 15.0 mph - N/A   Overcast
9:55 AM -4.9 °F -24.9 °F -16.8 °F 57% 30.54 in 10.0 mi NNW 13.8 mph 17.3 mph N/A   Mostly Cloudy
10:15 AM -4.7 °F -23.9 °F -17.7 °F 54% 30.53 in 10.0 mi North 12.7 mph - N/A   Mostly Cloudy
10:35 AM -4.5 °F -24.4 °F -18.0 °F 52% 30.52 in 10.0 mi NNW 13.8 mph - N/A   Scattered Clouds
10:55 AM -4.0 °F -25.2 °F -18.0 °F 51% 30.52 in 10.0 mi NNW 16.1 mph 21.9 mph N/A   Mostly Cloudy
11:15 AM -3.5 °F -21.4 °F -16.2 °F 54% 30.52 in 10.0 mi NNW 11.5 mph 18.4 mph N/A   Scattered Clouds
11:35 AM -2.4 °F -22.4 °F -16.8 °F 50% 30.51 in 10.0 mi NNW 15.0 mph - N/A   Clear
11:55 AM -2.7 °F -20.5 °F -17.1 °F 50% 30.51 in 10.0 mi NNW 11.5 mph - N/A   Clear
12:15 PM -2.4 °F -22.4 °F -17.7 °F 48% 30.52 in 10.0 mi North 15.0 mph 19.6 mph N/A   Clear
12:35 PM -1.7 °F -19.2 °F -15.9 °F 51% 30.51 in 10.0 mi North 11.5 mph 19.6 mph N/A   Clear
12:55 PM -1.1 °F -21.5 °F -14.8 °F 52% 30.49 in 10.0 mi North 16.1 mph - N/A   Clear
1:15 PM -0.8 °F -20.3 °F -14.6 °F 52% 30.49 in 10.0 mi North 15.0 mph 18.4 mph N/A   Clear
1:35 PM -1.1 °F -21.5 °F -15.2 °F 52% 30.47 in 10.0 mi NNW 16.1 mph - N/A   Clear
1:55 PM -0.6 °F -18.6 °F -14.6 °F 52% 30.50 in 10.0 mi NNW 12.7 mph 18.4 mph N/A   Clear
2:15 PM 0.1 °F -18.5 °F -14.4 °F 50% 30.50 in 10.0 mi North 13.8 mph - N/A   Clear
2:35 PM -0.4 °F -17.6 °F -15.7 °F 49% 30.50 in 10.0 mi North 11.5 mph 19.6 mph N/A   Clear
2:55 PM 0.1 °F -18.5 °F -15.3 °F 48% 30.50 in 10.0 mi NNW 13.8 mph - N/A   Clear
3:15 PM -0.0 °F -18.0 °F -14.6 °F 50% 30.50 in 10.0 mi North 12.7 mph - N/A   Clear
3:35 PM -0.4 °F -19.2 °F -14.4 °F 52% 30.48 in 10.0 mi NNW 13.8 mph - N/A   Clear
3:55 PM -0.6 °F -20.8 °F -14.8 °F 51% 30.48 in 10.0 mi NNW 16.1 mph 20.7 mph N/A   Clear
4:15 PM -0.0 °F -20.1 °F -14.3 °F 51% 30.48 in 10.0 mi NNW 16.1 mph - N/A   Clear
4:35 PM -0.4 °F -20.5 °F -15.7 °F 49% 30.48 in 10.0 mi North 16.1 mph - N/A   Clear
4:50 PM -0.9 °F -19.9 °F -14.8 °F 52% 30.48 in 10.0 mi NNW 13.8 mph - N/A   Clear
5:15 PM -1.8 °F -20.2 °F -14.1 °F 56% 30.47 in 10.0 mi NNW 12.7 mph - N/A   Clear
5:35 PM -2.2 °F -18.9 °F -13.4 °F 59% 30.48 in 10.0 mi NNW 10.4 mph - N/A   Clear
5:55 PM -2.7 °F -21.4 °F -13.5 °F 60% 30.46 in 10.0 mi NNW 12.7 mph 16.1 mph N/A   Clear
6:15 PM -3.1 °F -19.1 °F -13.2 °F 62% 30.47 in 10.0 mi NNW 9.2 mph - N/A   Clear
6:35 PM -2.9 °F -17.7 °F -13.0 °F 62% 30.49 in 10.0 mi NNW 8.1 mph - N/A   Clear
6:55 PM -3.1 °F -17.9 °F -13.0 °F 63% 30.48 in 10.0 mi NNW 8.1 mph - N/A   Clear
7:15 PM -3.1 °F -19.1 °F -13.0 °F 63% 30.50 in 10.0 mi NW 9.2 mph - N/A   Clear
7:35 PM -3.3 °F -16.9 °F -12.3 °F 65% 30.49 in 10.0 mi NW 6.9 mph - N/A   Clear
7:55 PM -3.5 °F -19.5 °F -12.6 °F 65% 30.49 in 10.0 mi NNW 9.2 mph - N/A   Clear
8:15 PM -3.6 °F -17.3 °F -12.5 °F 66% 30.49 in 10.0 mi NNW 6.9 mph - N/A   Clear
8:35 PM -4.0 °F -19.0 °F -13.0 °F 65% 30.50 in 10.0 mi NW 8.1 mph - N/A   Clear
8:55 PM -4.5 °F -20.8 °F -13.4 °F 66% 30.51 in 10.0 mi NW 9.2 mph - N/A   Clear
9:15 PM -4.9 °F -21.3 °F -13.7 °F 66% 30.52 in 10.0 mi NNW 9.2 mph - N/A   Clear
9:30 PM -5.1 °F -20.4 °F -13.9 °F 66% 30.52 in 10.0 mi NNW 8.1 mph - N/A   Clear
9:55 PM -5.3 °F -20.6 °F -13.9 °F 66% 30.52 in 10.0 mi NW 8.1 mph - N/A   Clear
10:15 PM -5.8 °F -19.9 °F -14.1 °F 67% 30.53 in 10.0 mi NW 6.9 mph - N/A   Clear
10:35 PM -6.0 °F -20.1 °F -14.1 °F 68% 30.52 in 10.0 mi NW 6.9 mph - N/A   Clear
10:55 PM -5.8 °F -23.4 °F -13.9 °F 68% 30.51 in 10.0 mi NW 10.4 mph - N/A   Clear
11:15 PM -5.8 °F -22.4 °F -13.9 °F 68% 30.51 in 10.0 mi NW 9.2 mph - N/A   Clear
11:35 PM -5.8 °F -22.4 °F -13.9 °F 68% 30.51 in 10.0 mi NW 9.2 mph - N/A   Clear
11:55 PM -5.8 °F -22.4 °F -13.9 °F 68% 30.52 in 10.0 mi NW 9.2 mph - N/A   Clear